DLH914 EDDF-EGLL

Flight info

Callsign DLH914
Flight time 1h 3m
Altitude 36000
Route OBOKA3M OBOKA Z29 TORNU DCT ABNED L980 LOGAN
Aircraft A320/M-SDE3FGHIRWY/LB1

Departure

Time 2026-05-06 05:15
Airport Frankfurt Main Airport (EDDF)

Arrival

Time 2026-05-06 06:18
Airport London Heathrow Airport (EGLL)
Time Latitude Longitude Altitude Speed Heading
2026-05-06 04:58 50.04901 8.58796 362 ft 0 kts 160°
2026-05-06 05:08 50.04917 8.58786 362 ft 4 kts 160°
2026-05-06 05:09 50.04937 8.58776 363 ft 4 kts 180°
2026-05-06 05:09 50.04956 8.58789 360 ft 4 kts 243°
2026-05-06 05:09 50.04965 8.58825 361 ft 3 kts 250°
2026-05-06 05:09 50.04967 8.58830 364 ft 1 kts 250°
2026-05-06 05:11 50.04965 8.58823 361 ft 4 kts 251°
2026-05-06 05:11 50.04942 8.58728 360 ft 11 kts 245°
2026-05-06 05:12 50.04876 8.58691 362 ft 10 kts 163°
2026-05-06 05:12 50.04808 8.58728 366 ft 11 kts 159°
2026-05-06 05:12 50.04740 8.58766 371 ft 10 kts 163°
2026-05-06 05:12 50.04710 8.58770 369 ft 2 kts 183°
2026-05-06 05:13 50.04707 8.58770 369 ft 1 kts 184°
2026-05-06 05:13 50.04666 8.58764 370 ft 9 kts 186°
2026-05-06 05:13 50.04581 8.58713 371 ft 16 kts 221°
2026-05-06 05:13 50.04499 8.58631 371 ft 12 kts 231°
2026-05-06 05:14 50.04482 8.58569 370 ft 0 kts 248°
2026-05-06 05:14 50.04447 8.58437 373 ft 44 kts 247°
2026-05-06 05:14 50.04258 8.57636 362 ft 111 kts 249°
2026-05-06 05:15 50.03925 8.56246 357 ft 161 kts 246°
2026-05-06 05:15 50.03512 8.54544 845 ft 171 kts 247°
2026-05-06 05:15 50.03104 8.52813 1630 ft 170 kts 247°
2026-05-06 05:15 50.02665 8.51038 2145 ft 182 kts 243°
2026-05-06 05:16 50.01743 8.49694 2722 ft 192 kts 205°
2026-05-06 05:16 50.00449 8.49065 3312 ft 199 kts 200°
2026-05-06 05:16 49.99046 8.48415 3656 ft 223 kts 200°
2026-05-06 05:16 49.97524 8.47708 4374 ft 231 kts 200°
2026-05-06 05:17 49.95965 8.46986 5213 ft 236 kts 200°
2026-05-06 05:17 49.94381 8.46259 6121 ft 238 kts 200°
2026-05-06 05:17 49.92805 8.45485 6998 ft 238 kts 206°
2026-05-06 05:17 49.91420 8.44140 7802 ft 239 kts 223°
2026-05-06 05:18 49.90367 8.42152 8636 ft 241 kts 239°
2026-05-06 05:18 49.89502 8.39901 9489 ft 245 kts 239°
2026-05-06 05:18 49.88803 8.37481 10226 ft 250 kts 254°
2026-05-06 05:18 49.88603 8.34715 10691 ft 270 kts 271°
2026-05-06 05:19 49.88761 8.31674 10931 ft 295 kts 272°
2026-05-06 05:19 49.89003 8.28393 11159 ft 320 kts 280°
2026-05-06 05:19 49.89830 8.25033 11333 ft 348 kts 297°
2026-05-06 05:19 49.91277 8.21902 11748 ft 363 kts 304°
2026-05-06 05:20 49.92806 8.18738 12470 ft 368 kts 303°
2026-05-06 05:20 49.94446 8.15662 13188 ft 374 kts 311°
2026-05-06 05:20 49.96403 8.12937 13852 ft 380 kts 316°
2026-05-06 05:20 49.98418 8.10249 14471 ft 384 kts 316°
2026-05-06 05:21 50.00454 8.07531 15046 ft 388 kts 316°
2026-05-06 05:21 50.02507 8.04785 15657 ft 391 kts 316°
2026-05-06 05:21 50.04581 8.02005 16238 ft 395 kts 316°
2026-05-06 05:21 50.06672 7.99199 16794 ft 399 kts 316°
2026-05-06 05:22 50.08783 7.96366 17356 ft 403 kts 316°
2026-05-06 05:22 50.10914 7.93501 17915 ft 406 kts 316°
2026-05-06 05:22 50.13056 7.90616 18420 ft 409 kts 316°
2026-05-06 05:22 50.15223 7.87695 18899 ft 412 kts 316°
2026-05-06 05:23 50.17400 7.84759 19400 ft 415 kts 316°
2026-05-06 05:23 50.19585 7.81808 19877 ft 418 kts 316°
2026-05-06 05:23 50.23994 7.75881 20818 ft 424 kts 319°
2026-05-06 05:24 50.26458 7.73292 21256 ft 430 kts 329°
2026-05-06 05:24 50.29180 7.71272 21695 ft 435 kts 334°
2026-05-06 05:24 50.31958 7.69378 22148 ft 437 kts 334°
2026-05-06 05:24 50.34755 7.67462 22584 ft 440 kts 334°
2026-05-06 05:25 50.37566 7.65535 23009 ft 443 kts 334°
2026-05-06 05:25 50.40403 7.63587 23406 ft 446 kts 335°
2026-05-06 05:25 50.43253 7.61628 23771 ft 448 kts 335°
2026-05-06 05:25 50.46115 7.59658 24133 ft 450 kts 335°
2026-05-06 05:26 50.48993 7.57676 24495 ft 452 kts 335°
2026-05-06 05:26 50.51880 7.55686 24855 ft 454 kts 335°
2026-05-06 05:26 50.54775 7.53671 25194 ft 456 kts 334°
2026-05-06 05:26 50.57546 7.51217 25524 ft 458 kts 326°
2026-05-06 05:27 50.60218 7.48475 25838 ft 460 kts 326°
2026-05-06 05:27 50.62900 7.45719 26171 ft 462 kts 327°
2026-05-06 05:27 50.65601 7.42943 26487 ft 463 kts 327°
2026-05-06 05:27 50.68301 7.40168 26813 ft 464 kts 327°
2026-05-06 05:28 50.70977 7.37301 27115 ft 467 kts 323°
2026-05-06 05:28 50.73410 7.33891 27406 ft 469 kts 314°
2026-05-06 05:28 50.75475 7.29989 27694 ft 471 kts 305°
2026-05-06 05:28 50.77174 7.25575 28086 ft 470 kts 297°
2026-05-06 05:29 50.78657 7.20982 28492 ft 469 kts 297°
2026-05-06 05:29 50.80148 7.16385 28911 ft 468 kts 297°
2026-05-06 05:29 50.81640 7.11805 29335 ft 467 kts 297°
2026-05-06 05:29 50.83126 7.07247 29753 ft 467 kts 297°
2026-05-06 05:30 50.84610 7.02685 30117 ft 466 kts 297°
2026-05-06 05:30 50.86089 6.98126 30460 ft 465 kts 297°
2026-05-06 05:30 50.87562 6.93568 30800 ft 465 kts 297°
2026-05-06 05:30 50.89029 6.89007 31129 ft 464 kts 296°
2026-05-06 05:31 50.90488 6.84454 31460 ft 464 kts 296°
2026-05-06 05:31 50.91948 6.79893 31794 ft 464 kts 296°
2026-05-06 05:31 50.93404 6.75336 32124 ft 463 kts 296°
2026-05-06 05:31 50.94860 6.70774 32458 ft 463 kts 296°
2026-05-06 05:32 50.96310 6.66226 32792 ft 463 kts 296°
2026-05-06 05:32 50.97765 6.61666 33134 ft 462 kts 296°
2026-05-06 05:32 50.99214 6.57111 33454 ft 463 kts 295°
2026-05-06 05:32 51.00662 6.52541 33796 ft 463 kts 295°
2026-05-06 05:33 51.02110 6.47965 34072 ft 463 kts 295°
2026-05-06 05:33 51.03555 6.43393 34372 ft 462 kts 295°
2026-05-06 05:33 51.04973 6.38888 34661 ft 461 kts 295°
2026-05-06 05:33 51.06425 6.34273 34950 ft 460 kts 295°
2026-05-06 05:34 51.07854 6.29725 35229 ft 459 kts 295°
2026-05-06 05:34 51.09262 6.25236 35503 ft 458 kts 295°
2026-05-06 05:34 51.10683 6.20699 35735 ft 458 kts 295°
2026-05-06 05:34 51.12102 6.16159 35806 ft 459 kts 295°
2026-05-06 05:35 51.14543 6.06800 35809 ft 456 kts 282°
2026-05-06 05:35 51.16129 5.97009 35809 ft 456 kts 282°
2026-05-06 05:36 51.17713 5.87208 35811 ft 457 kts 282°
2026-05-06 05:36 51.19830 5.77658 35812 ft 459 kts 291°
2026-05-06 05:37 51.22317 5.68278 35820 ft 459 kts 291°
2026-05-06 05:37 51.24792 5.58895 35826 ft 459 kts 291°
2026-05-06 05:38 51.27257 5.49498 35833 ft 458 kts 291°
2026-05-06 05:38 51.29706 5.40104 35832 ft 458 kts 291°
2026-05-06 05:39 51.32130 5.30762 35839 ft 458 kts 291°
2026-05-06 05:39 51.34567 5.21352 35851 ft 457 kts 291°
2026-05-06 05:40 51.36990 5.11948 35855 ft 456 kts 291°
2026-05-06 05:40 51.39386 5.02567 35870 ft 455 kts 290°
2026-05-06 05:41 51.41769 4.93245 35867 ft 454 kts 290°
2026-05-06 05:41 51.44156 4.83866 35864 ft 454 kts 290°
2026-05-06 05:42 51.46540 4.74472 35866 ft 454 kts 290°
2026-05-06 05:42 51.48914 4.65067 35860 ft 455 kts 291°
2026-05-06 05:43 51.50876 4.57254 35859 ft 455 kts 289°
2026-05-06 05:43 51.53228 4.47826 35862 ft 455 kts 291°
2026-05-06 05:44 51.55576 4.38399 35861 ft 454 kts 289°
2026-05-06 05:44 51.57923 4.28969 35858 ft 454 kts 290°
2026-05-06 05:45 51.60261 4.19525 35858 ft 454 kts 290°
2026-05-06 05:45 51.62586 4.10076 35861 ft 454 kts 289°
2026-05-06 05:46 51.64904 4.00605 35865 ft 454 kts 290°
2026-05-06 05:46 51.67213 3.91139 35866 ft 454 kts 290°
2026-05-06 05:47 51.69523 3.81660 35880 ft 454 kts 290°
2026-05-06 05:47 51.71799 3.72252 35890 ft 452 kts 291°
2026-05-06 05:48 51.74074 3.62794 35895 ft 452 kts 289°
2026-05-06 05:48 51.76340 3.53338 35897 ft 451 kts 289°
2026-05-06 05:49 51.78596 3.43900 35903 ft 450 kts 289°
2026-05-06 05:49 51.80843 3.34449 35907 ft 450 kts 290°
2026-05-06 05:50 51.83069 3.24999 35915 ft 450 kts 289°
2026-05-06 05:50 51.84477 3.15238 35914 ft 445 kts 272°
2026-05-06 05:51 51.84162 3.05358 35907 ft 444 kts 263°
2026-05-06 05:51 51.83511 2.95434 35907 ft 444 kts 262°
2026-05-06 05:52 51.82853 2.85502 35918 ft 444 kts 263°
2026-05-06 05:52 51.82182 2.75566 35922 ft 444 kts 263°
2026-05-06 05:53 51.81509 2.65648 35916 ft 444 kts 263°
2026-05-06 05:53 51.80828 2.55723 35924 ft 444 kts 263°
2026-05-06 05:54 51.80135 2.45817 35920 ft 444 kts 262°
2026-05-06 05:54 51.79436 2.35912 35937 ft 443 kts 262°
2026-05-06 05:55 51.78730 2.26087 35934 ft 443 kts 262°
2026-05-06 05:55 51.78051 2.16203 35923 ft 444 kts 263°
2026-05-06 05:56 51.77756 2.11227 35325 ft 447 kts 264°
2026-05-06 05:56 51.77474 2.06172 34355 ft 453 kts 264°
2026-05-06 05:56 51.77194 2.01089 33458 ft 456 kts 264°
2026-05-06 05:56 51.76908 1.95995 32583 ft 456 kts 263°
2026-05-06 05:57 51.76615 1.90938 31868 ft 452 kts 264°
2026-05-06 05:57 51.76310 1.85861 30840 ft 456 kts 263°
2026-05-06 05:57 51.75996 1.80756 29778 ft 459 kts 263°
2026-05-06 05:57 51.75674 1.75601 28528 ft 462 kts 263°
2026-05-06 05:58 51.75346 1.70417 27264 ft 466 kts 263°
2026-05-06 05:58 51.75012 1.65200 26025 ft 470 kts 263°
2026-05-06 05:58 51.74676 1.59929 24789 ft 473 kts 263°
2026-05-06 05:58 51.74343 1.54678 24060 ft 467 kts 263°
2026-05-06 05:59 51.74015 1.49497 23343 ft 461 kts 264°
2026-05-06 05:59 51.73687 1.44386 22621 ft 454 kts 263°
2026-05-06 05:59 51.73361 1.39344 21951 ft 449 kts 263°
2026-05-06 05:59 51.73035 1.34351 21289 ft 445 kts 264°
2026-05-06 06:00 51.72710 1.29419 20624 ft 440 kts 264°
2026-05-06 06:00 51.72390 1.24594 19980 ft 434 kts 264°
2026-05-06 06:00 51.72069 1.19750 19327 ft 431 kts 264°
2026-05-06 06:00 51.71751 1.14959 18696 ft 428 kts 264°
2026-05-06 06:01 51.71430 1.10225 18023 ft 423 kts 264°
2026-05-06 06:01 51.71106 1.05528 17362 ft 419 kts 264°
2026-05-06 06:01 51.70783 1.00869 16739 ft 416 kts 264°
2026-05-06 06:01 51.70461 0.96248 16127 ft 414 kts 264°
2026-05-06 06:02 51.70143 0.91656 15292 ft 413 kts 264°
2026-05-06 06:02 51.69825 0.87029 14359 ft 415 kts 264°
2026-05-06 06:02 51.69515 0.82512 13935 ft 390 kts 264°
2026-05-06 06:02 51.69224 0.78340 13740 ft 360 kts 264°
2026-05-06 06:03 51.68949 0.74477 13488 ft 335 kts 264°
2026-05-06 06:03 51.68686 0.70832 12983 ft 322 kts 264°
2026-05-06 06:03 51.68430 0.67276 12380 ft 319 kts 265°
2026-05-06 06:03 51.68178 0.63743 12022 ft 316 kts 265°
2026-05-06 06:04 51.67930 0.60280 11659 ft 313 kts 264°
2026-05-06 06:04 51.67684 0.56859 11448 ft 305 kts 264°
2026-05-06 06:04 51.67441 0.53481 11115 ft 302 kts 265°
2026-05-06 06:04 51.67202 0.50150 10876 ft 295 kts 265°
2026-05-06 06:05 51.66966 0.46899 10579 ft 292 kts 265°
2026-05-06 06:05 51.66728 0.43630 10159 ft 293 kts 265°
2026-05-06 06:05 51.66491 0.40388 9839 ft 290 kts 265°
2026-05-06 06:05 51.66254 0.37166 9433 ft 289 kts 265°
2026-05-06 06:06 51.66017 0.33963 9070 ft 286 kts 265°
2026-05-06 06:06 51.65784 0.30828 8582 ft 278 kts 265°
2026-05-06 06:06 51.65553 0.27761 7957 ft 276 kts 265°
2026-05-06 06:06 51.65318 0.24666 7539 ft 276 kts 266°
2026-05-06 06:07 51.65087 0.21643 7303 ft 270 kts 266°
2026-05-06 06:07 51.64860 0.18650 7150 ft 268 kts 266°
2026-05-06 06:07 51.64642 0.15708 7027 ft 258 kts 269°
2026-05-06 06:07 51.64689 0.12935 7003 ft 240 kts 277°
2026-05-06 06:08 51.64793 0.10304 7006 ft 233 kts 277°
2026-05-06 06:08 51.64889 0.07703 7007 ft 232 kts 277°
2026-05-06 06:08 51.64981 0.05110 7006 ft 232 kts 277°
2026-05-06 06:08 51.65075 0.02513 7007 ft 232 kts 277°
2026-05-06 06:09 51.65167 -0.00079 7009 ft 232 kts 277°
2026-05-06 06:09 51.65260 -0.02680 6999 ft 233 kts 276°
2026-05-06 06:09 51.65350 -0.05288 7005 ft 233 kts 276°
2026-05-06 06:09 51.65439 -0.07826 7008 ft 234 kts 276°
2026-05-06 06:10 51.65534 -0.10504 7008 ft 231 kts 276°
2026-05-06 06:10 51.65623 -0.13005 7008 ft 226 kts 276°
2026-05-06 06:10 51.65631 -0.15542 6945 ft 229 kts 263°
2026-05-06 06:10 51.65014 -0.17878 6809 ft 228 kts 236°
2026-05-06 06:11 51.63808 -0.19506 6662 ft 229 kts 208°
2026-05-06 06:11 51.62301 -0.20352 6454 ft 229 kts 200°
2026-05-06 06:11 51.60783 -0.21113 6280 ft 228 kts 200°
2026-05-06 06:11 51.59211 -0.21443 6107 ft 230 kts 177°
2026-05-06 06:12 51.57665 -0.20785 5909 ft 232 kts 153°
2026-05-06 06:12 51.56364 -0.19231 5331 ft 237 kts 128°
2026-05-06 06:12 51.55373 -0.17080 4761 ft 240 kts 123°
2026-05-06 06:12 51.54415 -0.14964 4523 ft 227 kts 123°
2026-05-06 06:13 51.53402 -0.13124 4383 ft 217 kts 144°
2026-05-06 06:13 51.52010 -0.12339 3994 ft 213 kts 173°
2026-05-06 06:13 51.50586 -0.12532 3791 ft 205 kts 197°
2026-05-06 06:13 51.49328 -0.13537 3704 ft 201 kts 220°
2026-05-06 06:14 51.48390 -0.15163 3564 ft 197 kts 242°
2026-05-06 06:14 51.47881 -0.17164 3360 ft 193 kts 263°
2026-05-06 06:14 51.47803 -0.19281 3135 ft 190 kts 275°
2026-05-06 06:14 51.47803 -0.21404 2878 ft 189 kts 275°
2026-05-06 06:15 51.47801 -0.23485 2634 ft 183 kts 275°
2026-05-06 06:15 51.47799 -0.25495 2375 ft 178 kts 275°
2026-05-06 06:15 51.47796 -0.27462 2131 ft 174 kts 275°
2026-05-06 06:15 51.47794 -0.29372 1886 ft 170 kts 275°
2026-05-06 06:16 51.47790 -0.31197 1673 ft 156 kts 275°
2026-05-06 06:16 51.47787 -0.32885 1451 ft 148 kts 275°
2026-05-06 06:16 51.47784 -0.34520 1253 ft 145 kts 275°
2026-05-06 06:16 51.47782 -0.36118 1046 ft 142 kts 274°
2026-05-06 06:17 51.47779 -0.37695 836 ft 140 kts 274°
2026-05-06 06:17 51.47774 -0.39265 661 ft 140 kts 272°
2026-05-06 06:17 51.47741 -0.40815 480 ft 139 kts 274°
2026-05-06 06:17 51.47742 -0.42351 291 ft 137 kts 276°
2026-05-06 06:18 51.47764 -0.43890 121 ft 137 kts 274°
2026-05-06 06:18 51.47769 -0.45302 91 ft 102 kts 270°
2026-05-06 06:18 51.47755 -0.45954 89 ft 19 kts 269°
2026-05-06 06:18 51.47749 -0.46142 87 ft 10 kts 238°
2026-05-06 06:19 51.47690 -0.46128 88 ft 9 kts 146°
2026-05-06 06:19 51.47639 -0.46075 90 ft 7 kts 153°
2026-05-06 06:19 51.47633 -0.46071 90 ft 0 kts 157°
2026-05-06 06:20 51.47615 -0.46064 88 ft 9 kts 168°
2026-05-06 06:20 51.47549 -0.46085 88 ft 9 kts 201°
2026-05-06 06:21 51.47516 -0.46208 86 ft 20 kts 274°
2026-05-06 06:21 51.47515 -0.46445 86 ft 22 kts 269°
2026-05-06 06:21 51.47515 -0.46681 86 ft 19 kts 270°
2026-05-06 06:21 51.47436 -0.46746 86 ft 15 kts 166°
2026-05-06 06:22 51.47337 -0.46726 86 ft 14 kts 179°
2026-05-06 06:22 51.47246 -0.46725 86 ft 13 kts 179°
2026-05-06 06:22 51.47162 -0.46723 86 ft 12 kts 179°
2026-05-06 06:22 51.47084 -0.46723 86 ft 11 kts 180°
2026-05-06 06:23 51.46990 -0.46659 91 ft 16 kts 146°
2026-05-06 06:23 51.46900 -0.46561 88 ft 15 kts 146°
2026-05-06 06:23 51.46817 -0.46470 90 ft 14 kts 146°
2026-05-06 06:23 51.46749 -0.46375 89 ft 12 kts 110°
2026-05-06 06:24 51.46747 -0.46199 90 ft 22 kts 89°
2026-05-06 06:24 51.46749 -0.45945 86 ft 24 kts 89°
2026-05-06 06:24 51.46749 -0.45675 86 ft 22 kts 90°
2026-05-06 06:24 51.46750 -0.45416 86 ft 24 kts 89°
2026-05-06 06:25 51.46751 -0.45194 86 ft 16 kts 90°
2026-05-06 06:25 51.46777 -0.45110 86 ft 8 kts 359°
2026-05-06 06:25 51.46825 -0.45112 86 ft 0 kts 359°